Погода Ртищево

Погода Ртищево : погода сейчас, прогноз погоды и архив. Всё, что Вы хотите узнать о погоде Ртищево!

Хотите узнать прогноз погоды Ртищево? Тогда Вам сюда: Погода Ртищево

Поиск расширенной информации на нашем сайте:

Другие новости

Новости СМИ2

Главная страница сайта

Новости сайта

03.07.2017

Напоминаем, что на нашем специализированном сайте Метеоцентр.Азия вы можете получить высокодетализированные автоматические прогнозы погоды по пунктам России, СНГ и мира в авиационном формате (включающие направление и скорость ветра, видимость, явления погоды, количество и форму облачности, нижнюю и верхнюю границу облачности).


Погода Ртищево - сегодня

Время (UTC), дата Ветер
(°,м/с) 
Видим.   Явления Облачность Т
(°С)
Тd
(°С)
f(%) Тe
(°С)
Pmin
(гПа)
dP
(гПа)
Po
(мм)
O2
(г/м3)
Тmin Tmax R s Состояние
почвы
18 20.02.18 260 (З) 4000 м    ясно 
-8.6 -9.6 92 -10  1020.2  1.2  745  311           
21 20.02.18 270 (З) 4000 м    10/0 средняя 
[As op]
-10.3 -10.8 96 -12  1020.7  0.3  745  313           
03 21.02.18 240 (ЮЗ) 4000 м  слаб. снег  10/0 средняя 
[As op]
-12.5 -12.7 98 -12  1021.6  0.3  746  316  -13.2    0.0  22  неравномерный
сухой снег
100% 
09 21.02.18 260 (З) 10 км    4/0 верхняя 
[Ci fib]
-8.8 -11.7 79 -10  1022.6  0.5  746  312           
12 21.02.18 270 (З) 10 км    4/0 верхняя 
[Ci fib]
-7.2 -11.1 74 -9  1022.6  0.2  747  310           
18 21.02.18 270 (З) 4000 м    3/0 верхняя 
[Ci fib]
-14.8 -15.2 97 -15  1024.9  0.9  748  320           
21 21.02.18 280 (З) 4000 м    3/0 верхняя 
[Ci fib]
-17.8 -18.8 92 -18  1025.9  0.6  748  324           
00 22.02.18 тихо ()   4000 м    4/0 верхняя 
[Ci fib]
-19.2 -20.3 91 -19  1026.4  0.4  748  326           
03 22.02.18 340 (С) 4000 м    3/0 верхняя 
[Ci fib]
-16 -16.6 95 -16  1026  748  322  -19.3      22  неравномерный
сухой снег
100% 
06 22.02.18 340 (С) 10 км  [диам. изморози 1 мм]  10/0 средняя, верхняя 
[Ac As|Ci fib]
-14.5 -15.4 93 -15  1026.4  0.5  749  320           
09 22.02.18 320 (СЗ) 10 км    3/0 верхняя 
[Ci fib]
-10.6 -13.7 78 -12  1026.3  0.2  749  315           
12 22.02.18 290 (З) 10 км    ясно 
-9.2 -14.6 65 -11  1025.8  -0.2  749  314           
15 22.02.18 270 (З) 4000 м    ясно 
-13 -15.5 81 -13  1026.5  0.2  749  318    -8.9       
18 22.02.18 270 (З) 4000 м    ясно 
-16.1 -16.8 94 -16  1027.1  0.3  749  322           
21 22.02.18 300 (СЗ) 4000 м    ясно 
-16.1 -17.1 92 -16  1027.5  0.4  749  322           
00 23.02.18 320 (СЗ) 4000 м    ясно 
-16.5 -17.4 93 -17  1027.5  749  323           
03 23.02.18 340 (С) 4000 м  [диам. изморози 1 мм]  ясно 
-18.7 -20.1 89 -19  1027.3  -0.5  749  326  -18.9      22  неравномерный
сухой снег
100% 
06 23.02.18 010 (С) 10 км  [диам. изморози 3 мм]  ясно 
-15.9 -17 91 -16  1027.5  0.5  749  322  -22.1         
09 23.02.18 020 (С) 10 км    ясно 
-11.9 -14.5 81 -14  1027  749  317           
12 23.02.18 070 (В) 1000 м    3/0 средняя 
[Ac cast]
-10.8 -14.9 72 -11  1026.4  -0.5  749  316           
15 23.02.18 060 (СВ) 10 км    ясно 
-15.7 -16.9 90 -16  1026.8  0.1  749  322    -10.4       
18 23.02.18 020 (С) 4000 м    ясно 
-16.9 -17.7 94 -17  1026.8  -0.2  749  323           
21 23.02.18 030 (СВ) 4000 м    ясно 
-17.4 -17.8 97 -18  1026.7  0.1  749  324           
00 24.02.18 030 (СВ) 4000 м    ясно 
-17.8 -18.4 95 -20  1026.6  -0.2  749  324           
03 24.02.18 040 (СВ) 4000 м  [диам. изморози 4 мм]  ясно 
-18.4 -19.3 93 -19  1026  -0.6  748  325  -19.6      22  неравномерный
сухой снег
100% 
Время (UTC), дата Ветер
(°,м/с) 
Видим.   Явления Облачность Т
(°С)
Тd
(°С)
f(%) Тe
(°С)
Pmin
(гПа)
dP
(гПа)
Po
(мм)
O2
(г/м3)
Тmin Tmax R s Состояние
почвы

Для получения пояснительной информации подведите курсор к названию столбца.

ПОГОДА Ртищево - архив

Всё, что Вы хотите узнать о погоде Ртищево - удобно и подробно!

Выберите нужную дату (начиная с 1 января 2015* года) и нажмите кнопку "Найти".
Будут отображены архивные сводки погоды по пункту Ртищево, начиная с указанной даты.


Отображать данные в формате CSV (для использования в таблицах Excel)


Внимание! Наш архив погоды предназначен исключительно для личного некоммерческого использования в познавательных целях. Если Вам необходимы официальные справки о состоянии погоды (для производственных, юридических, коммерческих и т.п. целей), обращайтесь в органы Росгидромета.

*Примечание: данная дата относится к архиву по метеостанциям СССР (Россия, СНГ, Балтия).
Архив по метеостанциям Зарубежной Европы и Азии (кроме Китая) хранится 10 дней, по другим регионам земного шара (Китай, Африка, Америка, Австралия, Океания) - 1 день.

Ртищево - район местоположения метеостанции


Название, широта, долгота, высота метеостанции:
Ртищево 52.2°ш. 43.8°д. 213 м над ур. моря [Российская Федерация]

Дополнительная информация

В oтличие oт бoльшинства пoгoдных сайтoв мы публикуем пoдрoбную метеoинфoрмацию в детальнoм прoфессиoнальнoм фoрмате.

Характеристики температуры и влажнoсти вoздуха измеряются на высoте 2 м в тени вдали oт зданий и деревьев.
Скoрoсть ветра измеряется на высoте 10 м (на урoвне рoста челoвека скoрoсть ветра ниже в 1.5-2 раза). Если метеoстанция нахoдится в гoрoде или в лесу, тo скoрoсть ветра занижена на 2-4 м/с пo сравнению с oткрытым местoм. Скoрoсть ветра над акватoриями крупных рек и oзёр, а также на вершинах хoлмoв на 2-5 м/с выше, чем в oбычных услoвиях.
Атмoсфернoе давление в разных тoчках местнoсти мoжет значительнo oтличаться oт давления на метеoстанции, в зависимoсти oт услoвий рельефа (при пoдъёме на 10 м давление пoнижается примернo на 1 мм рт.ст.).